STARLINK-5917, 55942

Orbit data source: Space-Track

STARLINK-5917, 55942 is a payload satellite owned by SpaceX/Seattle (US) in LEO that was launched on Fri, 17 Mar 2023 UTC via an FALCON 9 launch vehicle from the Air Force Western Test Range (AFWTR). Payload-class satellites include a variety of spacecraft equipped with specific instruments for various scientific and technological missions. These include communications satellites like Starlink; space stations such as the ISS; scientific satellites like the Hubble; Earth observation satellites from companies like Planet Labs, Umbra, and HawkEye 360; GPS; miniature CubeSats for education and research; and military/defense satellites.

Loading next visibility...
Identifier
55942, 2023-037AE
Orbit
LEO
Country
Flag of USUS
Related business
Manufacturer
SpaceX/Seattle
Mission
Operational Commercial Communications
Bus & Motor
STARLINK, Unknown motor
Mass
305 kg wet, ~290 kg dry
Launch date (UTC)
2023-03-17 (3 years ago)
Launch vehicle
FALCON 9
Launch site
Air Force Western Test Range (AFWTR)
Object type
Payload
Rocket body
Debris
Shape & HBR
Box + 1 Pan, 10.1 m
Radar Cross Section
11.087 m², Large (>1 m²)

Expand to show TLE details & history
Last TLE update: 8 hours ago

TLE from 8 hours ago
0 STARLINK-5917
1 55942U 23037AE  25349.83619892  .00001130  00000-0  10249-3 0  9993
2 55942  69.9995 135.7229 0003143 269.4935  90.5864 14.98326371151421
Epoch: 2025-12-15T20:04Z
TLE epoch observation values (Epoch: 2025-12-15T20:04:07.586Z)
Latitude
-0.00003°
Longitude
109.96223°
Altitude
574.514 km
Speed
7.574 km/s
True Right ascension
09h 02m 53s
True Declination
0° 00' 00"
Sunlit
Object was in full shadow at epoch
Visualization orbit readout
Latitude
Unknown
Longitude
Unknown
Altitude
Unknown
Speed
Unknown
Apparent Right ascension
Unknown
Apparent Declination
Unknown
Sunlit
N/A
Visualization observer readout
Local Sidereal Time
03:10:44
Azimuth
Unknown
Elevation
Unknown
Doppler factor
Unknown
Orbital elements
Apogee altitude
572.199 km
Perigee altitude
567.832 km
Semi-major axis
6,948.152 km
Eccentricity
0.00031
Inclination
69.9995°
RAAN
135.7229°
Arg. of periapsis
269.4935°
True anomaly
90.62241°
Mean anomaly
90.5864°
Eccentric anomaly
90.60441°
Mean motion
3.74748 °/min
Orbital period
96.06 mins
BSTAR
0.00010249
Loading maneuver chart data...
Computing Atmospheric mass density...
Loading historical data...
Loading historical data...
Loading historical data...
Loading historical data...
Loading historical data...
Loading historical data...
Loading historical data...

Documentation

Showing up to 5 results
|